Location: St. Louis
(38.6270°N, 90.1994°W)
Time: 07:23:56
(UTC-06:00)

Vanguard 1 Rocket - Visible Passes

Search period start: 09 December 2021 00:00
Search period end: 19 December 2021 00:00
Orbit: 650 x 4225 km, 34.3° (Epoch: 08 December)

Date Brightness Start Highest point End Pass type
(mag) Time Alt. Az. Time Alt. Az. Time Alt. Az.
09 Dec 10.6 01:23:28 23° E 01:23:28 23° E 01:28:59 10° E visible
09 Dec 9.2 03:40:44 70° SW 03:42:09 74° S 04:03:02 10° ESE visible
09 Dec 10.4 05:58:01 14° W 06:11:45 57° SSW 06:35:57 10° SE visible
10 Dec 9.7 02:33:29 52° ESE 02:33:29 52° ESE 02:46:57 10° E visible
10 Dec 9.6 04:50:46 36° W 04:57:58 66° SSW 05:20:54 10° ESE visible
11 Dec 10.6 01:26:15 23° E 01:26:15 23° E 01:31:22 10° E visible
11 Dec 9.1 03:43:31 68° SW 03:44:45 71° S 04:05:06 10° ESE visible
11 Dec 10.4 06:00:48 13° W 06:14:04 50° SSW 06:37:09 10° SE visible
12 Dec 9.7 02:36:17 50° ESE 02:36:17 50° ESE 02:49:11 10° E visible
12 Dec 9.6 04:53:34 34° W 05:00:27 59° SSW 05:22:30 10° SE visible
13 Dec 10.7 01:29:04 22° E 01:29:04 22° E 01:33:44 10° E visible
13 Dec 9.2 03:46:21 65° SSW 03:47:21 66° S 04:07:03 10° ESE visible
13 Dec 10.4 06:03:37 12° W 06:16:25 43° SSW 06:38:01 10° SSE visible
14 Dec 9.7 02:39:08 48° ESE 02:39:08 48° ESE 02:51:23 10° ESE visible
14 Dec 9.7 04:56:24 32° WSW 05:02:57 52° SSW 05:23:51 10° SE visible
15 Dec 10.7 01:31:55 21° E 01:31:55 21° E 01:36:06 10° E visible
15 Dec 9.2 03:49:12 59° SSW 03:49:59 60° SSW 04:08:50 10° ESE visible
15 Dec 10.4 06:06:29 10° W 06:18:49 35° SSW 06:38:29 10° SSE visible
16 Dec 9.8 02:42:01 45° SE 02:42:01 45° SE 02:53:31 10° ESE visible
16 Dec 9.8 04:59:18 30° WSW 05:05:28 44° SSW 05:24:55 10° SE visible
17 Dec 10.7 01:34:50 19° ESE 01:34:50 19° ESE 01:38:27 10° E visible
17 Dec 9.3 03:52:07 52° SSW 03:52:37 52° SSW 04:10:25 10° SE visible
17 Dec 10.5 06:09:56 10° W 06:21:18 28° SSW 06:38:25 10° SSE visible
18 Dec 9.8 02:44:57 41° SE 02:44:57 41° SE 02:55:31 10° ESE visible
18 Dec 9.9 05:02:15 26° WSW 05:08:04 36° SSW 05:25:38 10° SSE visible
